Time,TemperatureF,DewpointF,PressureIn,WindDirection,WindDirectionDegrees,WindSpeedMPH,WindSpeedGustMPH,Humidity,HourlyPrecipIn,Conditions,Clouds,dailyrainin,SoftwareType,DateUTC
2013-04-26 00:02:00,50.0,44.0,30.28,ENE,78,0.0,11.0,79,0.00,,,0.01,,2013-04-26 05:02:00,
2013-04-26 00:12:00,50.0,44.0,30.28,ENE,78,0.0,11.0,79,0.00,,,0.01,,2013-04-26 05:12:00,
2013-04-26 00:22:00,50.0,44.0,30.28,ENE,78,0.0,0.0,79,0.00,,,0.01,,2013-04-26 05:22:00,
2013-04-26 00:32:00,50.0,44.0,30.27,ENE,78,0.0,0.0,79,0.00,,,0.01,,2013-04-26 05:32:00,
2013-04-26 00:42:00,50.0,44.0,30.27,ENE,78,0.0,0.0,79,0.00,,,0.01,,2013-04-26 05:42:00,
2013-04-26 00:52:00,50.0,44.0,30.27,ENE,78,0.0,0.0,79,0.00,,,0.01,,2013-04-26 05:52:00,
2013-04-26 01:02:00,49.0,43.0,30.27,ENE,78,0.0,0.0,81,0.00,,,0.01,,2013-04-26 06:02:00,
2013-04-26 01:11:00,49.0,43.0,30.27,ENE,78,0.0,0.0,81,0.00,,,0.01,,2013-04-26 06:11:00,
2013-04-26 01:21:00,49.0,43.0,30.27,ENE,78,0.0,0.0,81,0.00,,,0.01,,2013-04-26 06:21:00,
2013-04-26 01:32:00,49.0,43.0,30.27,ENE,78,0.0,0.0,81,0.00,,,0.01,,2013-04-26 06:32:00,
2013-04-26 01:42:00,49.0,43.0,30.27,ENE,78,0.0,0.0,81,0.00,,,0.01,,2013-04-26 06:42:00,
2013-04-26 01:52:00,49.0,43.0,30.26,ENE,78,0.0,0.0,81,0.00,,,0.01,,2013-04-26 06:52:00,
2013-04-26 02:01:00,49.0,44.0,30.26,ENE,78,0.0,0.0,82,0.00,,,0.01,,2013-04-26 07:01:00,
2013-04-26 02:11:00,49.0,44.0,30.26,ENE,78,0.0,0.0,82,0.00,,,0.01,,2013-04-26 07:11:00,
2013-04-26 02:22:00,49.0,44.0,30.25,ENE,78,0.0,0.0,83,0.00,,,0.01,,2013-04-26 07:22:00,
2013-04-26 02:31:00,49.0,44.0,30.24,ENE,78,0.0,0.0,84,0.00,,,0.01,,2013-04-26 07:31:00,
2013-04-26 02:42:00,49.0,44.0,30.24,ENE,78,0.0,0.0,84,0.00,,,0.01,,2013-04-26 07:42:00,
2013-04-26 02:52:00,49.0,44.0,30.24,ENE,78,0.0,0.0,83,0.00,,,0.01,,2013-04-26 07:52:00,
2013-04-26 03:02:00,48.0,44.0,30.24,ENE,78,0.0,0.0,85,0.00,,,0.01,,2013-04-26 08:02:00,
2013-04-26 03:11:00,48.0,44.0,30.24,ENE,78,0.0,0.0,85,0.00,,,0.01,,2013-04-26 08:11:00,
2013-04-26 03:21:00,48.0,44.0,30.23,ENE,78,0.0,0.0,85,0.00,,,0.01,,2013-04-26 08:21:00,
2013-04-26 03:31:00,48.0,44.0,30.23,ENE,78,0.0,0.0,85,0.00,,,0.01,,2013-04-26 08:31:00,
2013-04-26 03:42:00,48.0,44.0,30.23,ENE,78,0.0,0.0,85,0.00,,,0.01,,2013-04-26 08:42:00,
2013-04-26 03:52:00,49.0,45.0,30.22,ENE,78,0.0,0.0,85,0.00,,,0.01,,2013-04-26 08:52:00,
2013-04-26 04:01:00,48.0,44.0,30.22,ENE,78,0.0,0.0,85,0.00,,,0.01,,2013-04-26 09:01:00,
2013-04-26 04:11:00,48.0,44.0,30.22,ENE,78,0.0,0.0,85,0.00,,,0.01,,2013-04-26 09:11:00,
2013-04-26 04:21:00,48.0,44.0,30.22,ENE,78,0.0,0.0,85,0.00,,,0.01,,2013-04-26 09:21:00,
2013-04-26 04:33:00,47.0,43.0,30.22,ENE,78,0.0,0.0,86,0.00,,,0.01,,2013-04-26 09:33:00,
2013-04-26 04:42:00,47.0,43.0,30.22,ENE,78,0.0,0.0,86,0.00,,,0.01,,2013-04-26 09:42:00,
2013-04-26 04:53:00,47.0,43.0,30.22,ENE,78,0.0,0.0,86,0.00,,,0.01,,2013-04-26 09:53:00,
2013-04-26 05:03:00,47.0,43.0,30.23,ENE,78,0.0,0.0,86,0.00,,,0.01,,2013-04-26 10:03:00,
2013-04-26 05:12:00,47.0,43.0,30.23,ENE,78,0.0,0.0,86,0.00,,,0.01,,2013-04-26 10:12:00,
2013-04-26 05:23:00,46.0,42.0,30.23,ENE,78,0.0,0.0,86,0.00,,,0.01,,2013-04-26 10:23:00,
2013-04-26 05:33:00,46.0,42.0,30.24,ENE,78,0.0,0.0,86,0.00,,,0.01,,2013-04-26 10:33:00,
2013-04-26 05:42:00,46.0,42.0,30.24,ENE,78,0.0,0.0,86,0.00,,,0.01,,2013-04-26 10:42:00,
2013-04-26 05:52:00,46.0,43.0,30.24,ENE,78,0.0,0.0,88,0.00,,,0.01,,2013-04-26 10:52:00,
2013-04-26 06:02:00,46.0,42.0,30.24,South,170,0.0,0.0,86,0.00,,,0.01,,2013-04-26 11:02:00,
2013-04-26 06:11:00,46.0,42.0,30.24,South,170,0.0,0.0,86,0.00,,,0.01,,2013-04-26 11:11:00,
2013-04-26 06:22:00,47.0,43.0,30.24,East,100,0.0,2.0,85,0.00,,,0.01,,2013-04-26 11:22:00,
2013-04-26 06:32:00,48.0,43.0,30.26,East,101,0.0,2.0,83,0.00,,,0.01,,2013-04-26 11:32:00,
2013-04-26 06:41:00,48.0,43.0,30.26,East,101,0.0,2.0,83,0.00,,,0.01,,2013-04-26 11:41:00,
2013-04-26 06:52:00,48.0,43.0,30.26,SE,127,0.0,2.0,82,0.00,,,0.01,,2013-04-26 11:52:00,
2013-04-26 07:01:00,48.0,43.0,30.28,SE,127,0.0,2.0,83,0.00,,,0.01,,2013-04-26 12:01:00,
2013-04-26 07:11:00,48.0,43.0,30.28,SE,127,0.0,2.0,83,0.00,,,0.01,,2013-04-26 12:11:00,
2013-04-26 07:21:00,48.0,43.0,30.30,NNE,29,2.0,6.0,83,0.00,,,0.01,,2013-04-26 12:21:00,
2013-04-26 07:32:00,49.0,44.0,30.31,NE,38,0.0,6.0,83,0.00,,,0.01,,2013-04-26 12:32:00,
2013-04-26 07:41:00,49.0,44.0,30.31,NE,38,0.0,6.0,83,0.00,,,0.01,,2013-04-26 12:41:00,
2013-04-26 07:52:00,49.0,44.0,30.30,NE,38,0.0,6.0,82,0.00,,,0.01,,2013-04-26 12:52:00,
2013-04-26 08:01:00,49.0,43.0,30.30,NE,38,0.0,6.0,81,0.00,,,0.01,,2013-04-26 13:01:00,
2013-04-26 08:11:00,49.0,43.0,30.30,NE,38,0.0,6.0,81,0.00,,,0.01,,2013-04-26 13:11:00,
2013-04-26 08:21:00,50.0,44.0,30.30,NE,38,0.0,6.0,81,0.00,,,0.01,,2013-04-26 13:21:00,
2013-04-26 08:32:00,51.0,45.0,30.29,NNW,338,0.0,6.0,79,0.00,,,0.01,,2013-04-26 13:32:00,
2013-04-26 08:41:00,51.0,45.0,30.29,NNW,338,0.0,6.0,79,0.00,,,0.01,,2013-04-26 13:41:00,
2013-04-26 08:52:00,53.0,45.0,30.29,East,91,0.0,6.0,75,0.00,,,0.01,,2013-04-26 13:52:00,
2013-04-26 09:01:00,55.0,45.0,30.29,ESE,119,0.0,6.0,70,0.00,,,0.01,,2013-04-26 14:01:00,
2013-04-26 09:11:00,55.0,45.0,30.29,ESE,119,0.0,6.0,70,0.00,,,0.01,,2013-04-26 14:11:00,
2013-04-26 09:21:00,57.0,47.0,30.29,East,88,0.0,6.0,68,0.00,,,0.01,,2013-04-26 14:21:00,
2013-04-26 09:32:00,58.0,47.0,30.29,SSE,165,0.0,6.0,66,0.00,,,0.01,,2013-04-26 14:32:00,
2013-04-26 09:41:00,58.0,47.0,30.29,SSE,165,0.0,6.0,66,0.00,,,0.01,,2013-04-26 14:41:00,
2013-04-26 09:52:00,59.0,47.0,30.29,ESE,113,0.0,6.0,64,0.00,,,0.01,,2013-04-26 14:52:00,
2013-04-26 10:01:00,63.0,48.0,30.29,SSW,192,1.0,7.0,58,0.00,,,0.01,,2013-04-26 15:01:00,
2013-04-26 10:12:00,63.0,48.0,30.29,SSW,192,1.0,7.0,58,0.00,,,0.01,,2013-04-26 15:12:00,
2013-04-26 10:21:00,65.0,47.0,30.29,ENE,68,1.0,7.0,53,0.00,,,0.01,,2013-04-26 15:21:00,
2013-04-26 10:33:00,66.0,46.0,30.29,SE,139,1.0,7.0,49,0.00,,,0.01,,2013-04-26 15:33:00,
2013-04-26 10:42:00,66.0,46.0,30.29,SE,139,1.0,7.0,49,0.00,,,0.01,,2013-04-26 15:42:00,
2013-04-26 10:53:00,67.0,47.0,30.29,ESE,107,2.0,7.0,49,0.00,,,0.01,,2013-04-26 15:53:00,
2013-04-26 11:03:00,69.0,46.0,30.29,SE,131,1.0,7.0,44,0.00,,,0.01,,2013-04-26 16:03:00,
2013-04-26 11:12:00,69.0,46.0,30.29,SE,131,1.0,7.0,44,0.00,,,0.01,,2013-04-26 16:12:00,
2013-04-26 11:23:00,71.0,50.0,30.30,NE,47,0.0,7.0,48,0.00,,,0.01,,2013-04-26 16:23:00,
2013-04-26 11:33:00,73.0,49.0,30.29,ENE,78,2.0,7.0,43,0.00,,,0.01,,2013-04-26 16:33:00,
2013-04-26 11:42:00,73.0,49.0,30.29,ENE,78,2.0,7.0,43,0.00,,,0.01,,2013-04-26 16:42:00,
2013-04-26 11:52:00,73.0,50.0,30.28,SW,214,0.0,7.0,44,0.00,,,0.01,,2013-04-26 16:52:00,
2013-04-26 12:02:00,73.0,49.0,30.27,ESE,109,0.0,7.0,43,0.00,,,0.01,,2013-04-26 17:02:00,
2013-04-26 12:12:00,73.0,49.0,30.27,ESE,109,0.0,7.0,43,0.00,,,0.01,,2013-04-26 17:12:00,
2013-04-26 12:21:00,74.0,50.0,30.27,SSW,196,1.0,7.0,43,0.00,,,0.00,,2013-04-26 17:21:00,
2013-04-26 12:31:00,75.0,51.0,30.26,NNE,14,1.0,7.0,43,0.00,,,0.00,,2013-04-26 17:31:00,
2013-04-26 12:41:00,75.0,51.0,30.26,NNE,14,1.0,7.0,43,0.00,,,0.00,,2013-04-26 17:41:00,
2013-04-26 12:52:00,75.0,51.0,30.25,ESE,120,0.0,7.0,43,0.00,,,0.00,,2013-04-26 17:52:00,
2013-04-26 13:02:00,76.0,52.0,30.24,East,79,0.0,7.0,43,0.00,,,0.00,,2013-04-26 18:02:00,
2013-04-26 13:11:00,76.0,52.0,30.24,SSW,202,0.0,7.0,43,0.00,,,0.00,,2013-04-26 18:11:00,
2013-04-26 13:22:00,76.0,52.0,30.24,SSW,202,0.0,7.0,43,0.00,,,0.00,,2013-04-26 18:22:00,
2013-04-26 13:33:00,77.0,53.0,30.23,WSW,247,2.0,7.0,44,0.00,,,0.00,,2013-04-26 18:33:00,
2013-04-26 13:41:00,77.0,53.0,30.23,WSW,247,2.0,7.0,44,0.00,,,0.00,,2013-04-26 18:41:00,
2013-04-26 13:52:00,77.0,53.0,30.23,South,175,0.0,7.0,44,0.00,,,0.00,,2013-04-26 18:52:00,
2013-04-26 14:01:00,79.0,53.0,30.23,West,267,0.0,7.0,41,0.00,,,0.00,,2013-04-26 19:01:00,
2013-04-26 14:11:00,79.0,53.0,30.23,West,267,0.0,7.0,41,0.00,,,0.00,,2013-04-26 19:11:00,
2013-04-26 14:22:00,79.0,56.0,30.22,WNW,286,1.0,7.0,45,0.00,,,0.00,,2013-04-26 19:22:00,
2013-04-26 14:32:00,79.0,55.0,30.22,WSW,253,1.0,7.0,43,0.00,,,0.00,,2013-04-26 19:32:00,
2013-04-26 14:41:00,79.0,55.0,30.22,WSW,253,1.0,7.0,43,0.00,,,0.00,,2013-04-26 19:41:00,
2013-04-26 14:52:00,80.0,55.0,30.22,South,184,0.0,7.0,43,0.00,,,0.00,,2013-04-26 19:52:00,
2013-04-26 15:02:00,80.0,54.0,30.21,SE,130,2.0,7.0,41,0.00,,,0.00,,2013-04-26 20:02:00,
2013-04-26 15:11:00,80.0,53.0,30.21,SE,134,0.0,7.0,40,0.00,,,0.00,,2013-04-26 20:11:00,
2013-04-26 15:21:00,80.0,53.0,30.21,SE,134,0.0,7.0,40,0.00,,,0.00,,2013-04-26 20:21:00,
2013-04-26 15:32:00,80.0,55.0,30.20,East,83,0.0,7.0,42,0.00,,,0.00,,2013-04-26 20:32:00,
2013-04-26 15:42:00,80.0,55.0,30.20,East,83,0.0,7.0,42,0.00,,,0.00,,2013-04-26 20:42:00,
2013-04-26 15:52:00,80.0,53.0,30.19,SW,219,2.0,7.0,40,0.00,,,0.00,,2013-04-26 20:52:00,
2013-04-26 16:01:00,81.0,56.0,30.19,South,188,0.0,7.0,43,0.00,,,0.00,,2013-04-26 21:01:00,
2013-04-26 16:11:00,81.0,56.0,30.19,South,188,0.0,7.0,43,0.00,,,0.00,,2013-04-26 21:11:00,
2013-04-26 16:21:00,81.0,56.0,30.18,South,179,0.0,7.0,42,0.00,,,0.00,,2013-04-26 21:21:00,
2013-04-26 16:33:00,80.0,55.0,30.18,East,96,0.0,7.0,43,0.00,,,0.00,,2013-04-26 21:33:00,
2013-04-26 16:42:00,80.0,55.0,30.18,East,96,0.0,7.0,43,0.00,,,0.00,,2013-04-26 21:42:00,
2013-04-26 16:53:00,81.0,56.0,30.18,WSW,249,0.0,7.0,43,0.00,,,0.00,,2013-04-26 21:53:00,
2013-04-26 17:02:00,81.0,56.0,30.17,SSE,149,0.0,7.0,42,0.00,,,0.00,,2013-04-26 22:02:00,
2013-04-26 17:12:00,81.0,56.0,30.17,SSE,149,0.0,7.0,42,0.00,,,0.00,,2013-04-26 22:12:00,
2013-04-26 17:23:00,81.0,56.0,30.16,ESE,118,0.0,7.0,43,0.00,,,0.00,,2013-04-26 22:23:00,
2013-04-26 17:33:00,81.0,58.0,30.17,WSW,250,1.0,7.0,45,0.00,,,0.00,,2013-04-26 22:33:00,
2013-04-26 17:42:00,81.0,58.0,30.17,WSW,250,1.0,7.0,45,0.00,,,0.00,,2013-04-26 22:42:00,
2013-04-26 17:52:00,81.0,58.0,30.17,SSE,148,0.0,7.0,45,0.00,,,0.00,,2013-04-26 22:52:00,
2013-04-26 18:02:00,80.0,59.0,30.17,SSE,168,0.0,7.0,48,0.00,,,0.00,,2013-04-26 23:02:00,
2013-04-26 18:11:00,80.0,59.0,30.17,SSE,168,0.0,7.0,48,0.00,,,0.00,,2013-04-26 23:11:00,
2013-04-26 18:21:00,79.0,58.0,30.16,SSW,193,0.0,7.0,49,0.00,,,0.00,,2013-04-26 23:21:00,
2013-04-26 18:32:00,79.0,59.0,30.16,SSE,167,0.0,7.0,51,0.00,,,0.00,,2013-04-26 23:32:00,
2013-04-26 18:42:00,79.0,59.0,30.16,SSE,167,0.0,7.0,51,0.00,,,0.00,,2013-04-26 23:42:00,
2013-04-26 18:52:00,78.0,59.0,30.16,South,191,0.0,7.0,52,0.00,,,0.00,,2013-04-26 23:52:00,
2013-04-26 19:01:00,77.0,60.0,30.16,South,182,0.0,7.0,55,0.00,,,0.00,,2013-04-27 00:01:00,
2013-04-26 19:11:00,77.0,60.0,30.16,South,182,0.0,7.0,55,0.00,,,0.00,,2013-04-27 00:11:00,
2013-04-26 19:21:00,76.0,60.0,30.16,South,175,0.0,7.0,57,0.00,,,0.00,,2013-04-27 00:21:00,
2013-04-26 19:32:00,74.0,58.0,30.16,South,175,0.0,7.0,58,0.00,,,0.00,,2013-04-27 00:32:00,
2013-04-26 19:41:00,74.0,58.0,30.16,South,175,0.0,7.0,58,0.00,,,0.00,,2013-04-27 00:41:00,
2013-04-26 19:52:00,73.0,58.0,30.16,South,186,0.0,7.0,60,0.00,,,0.00,,2013-04-27 00:52:00,
2013-04-26 20:01:00,72.0,59.0,30.16,East,84,0.0,7.0,63,0.00,,,0.00,,2013-04-27 01:01:00,
2013-04-26 20:12:00,72.0,59.0,30.16,East,84,0.0,7.0,63,0.00,,,0.00,,2013-04-27 01:12:00,
2013-04-26 20:21:00,71.0,58.0,30.16,East,84,0.0,7.0,64,0.00,,,0.00,,2013-04-27 01:21:00,
2013-04-26 20:32:00,71.0,59.0,30.16,East,84,0.0,7.0,66,0.00,,,0.00,,2013-04-27 01:32:00,
2013-04-26 20:42:00,71.0,59.0,30.16,East,84,0.0,7.0,66,0.00,,,0.00,,2013-04-27 01:42:00,
2013-04-26 20:52:00,69.0,58.0,30.17,East,84,0.0,7.0,68,0.00,,,0.00,,2013-04-27 01:52:00,
2013-04-26 21:01:00,69.0,59.0,30.17,East,84,0.0,7.0,70,0.00,,,0.00,,2013-04-27 02:01:00,
2013-04-26 21:11:00,69.0,59.0,30.17,East,84,0.0,7.0,70,0.00,,,0.00,,2013-04-27 02:11:00,
2013-04-26 21:22:00,68.0,59.0,30.18,East,84,0.0,7.0,72,0.00,,,0.00,,2013-04-27 02:22:00,
2013-04-26 21:32:00,67.0,58.0,30.18,East,84,0.0,7.0,73,0.00,,,0.00,,2013-04-27 02:32:00,
2013-04-26 21:42:00,67.0,58.0,30.18,East,84,0.0,7.0,73,0.00,,,0.00,,2013-04-27 02:42:00,
2013-04-26 21:52:00,66.0,58.0,30.17,East,84,0.0,7.0,75,0.00,,,0.00,,2013-04-27 02:52:00,
2013-04-26 22:02:00,66.0,59.0,30.18,East,84,0.0,7.0,77,0.00,,,0.00,,2013-04-27 03:02:00,
2013-04-26 22:11:00,66.0,59.0,30.18,East,84,0.0,7.0,77,0.00,,,0.00,,2013-04-27 03:11:00,
2013-04-26 22:22:00,66.0,59.0,30.18,East,84,0.0,7.0,77,0.00,,,0.00,,2013-04-27 03:22:00,
2013-04-26 22:33:00,66.0,59.0,30.18,East,84,0.0,7.0,77,0.00,,,0.00,,2013-04-27 03:33:00,
2013-04-26 22:42:00,66.0,59.0,30.18,East,84,0.0,7.0,77,0.00,,,0.00,,2013-04-27 03:42:00,
2013-04-26 22:53:00,66.0,59.0,30.17,East,84,0.0,7.0,78,0.00,,,0.00,,2013-04-27 03:53:00,
2013-04-26 23:02:00,66.0,59.0,30.17,East,84,0.0,7.0,79,0.00,,,0.00,,2013-04-27 04:02:00,
2013-04-26 23:12:00,66.0,59.0,30.17,East,84,0.0,7.0,79,0.00,,,0.00,,2013-04-27 04:12:00,
2013-04-26 23:22:00,65.0,59.0,30.16,East,84,0.0,7.0,80,0.00,,,0.00,,2013-04-27 04:22:00,
2013-04-26 23:33:00,65.0,59.0,30.16,East,84,0.0,7.0,81,0.00,,,0.00,,2013-04-27 04:33:00,
2013-04-26 23:43:00,65.0,59.0,30.16,East,84,0.0,7.0,81,0.00,,,0.00,,2013-04-27 04:43:00,
2013-04-26 23:53:00,65.0,59.0,30.16,East,84,0.0,7.0,81,0.00,,,0.00,,2013-04-27 04:53:00,